Location: Pordenone
(45.9640°N, 12.6580°E)
Time: 03:17:39
(UTC+02:00)

ISS - Pass Details

Date: 23 May 2021
Orbit: 417 x 422 km, 51.6° (Epoch: 14 June)

Event Time Altitude Azimuth Distance (km) Brightness Sun altitude
Rises 00:34:24 0° 297° (WNW) 2,370 0.6 -23.1°
Reaches altitude 10° 00:36:30 10° 298° (WNW) 1,505 -0.5 -23.1°
Enters shadow 00:38:23 31° 297° (WNW) 771 -2.2 -23.2°
